QPF
0.00 0.02 0.03 0.01 0.01 0.02 0.00 0.00 0.00 0.00 0.00 0.00 0.00 0.00 0.00 0.00 0.00 0.00 0.00 0.00 0.00 0.00 0.00 0.00 0.00 0.00 0.00 0.00 0.00 0.00 0.00 0.00 0.00 0.00 0.00 0.00 0.00 0.00 0.00 0.00 0.00 0.00 0.00 0.00 0.00 0.00 0.01 0.00 0.00
0.01 0.04 0.01 0.02 0.01 0.00 0.00 0.00 0.00 0.00 0.00 0.00 0.00 0.00 0.00 0.00 0.00 0.00 0.03 0.01 0.00 0.00 0.00 0.00 0.00 0.00 0.00 0.00 0.00 0.00 0.00 0.00 0.00 0.00 0.00 0.00 0.00 0.00 0.00 0.00 0.00 0.00 0.00 0.00 0.00 0.00 0.00 0.00 0.00
0.00 0.00 0.03 0.06 0.02 0.00 0.00 0.00 0.00 0.00 0.00 0.00 0.00 0.00 0.00 0.00 0.00 0.00 0.00 0.00 0.00 0.00 0.00 0.00 0.00 0.00 0.00 0.00 0.00 0.00 0.00 0.00 0.00 0.01 0.01 0.00 0.00 0.00 0.00 0.00 0.00 0.00 0.00 0.00 0.00 0.00 0.00 0.00 0.00
0.00 0.00 0.00 0.02 0.00 0.00 0.00 0.00 0.00 0.00 0.00 0.00 0.00 0.00 0.00 0.00 0.00 0.00 0.00 0.00 0.00 0.00 0.00 0.00 0.00 0.00 0.00 0.00 0.00 0.00 0.00 0.00 0.00 0.00 0.00 0.01 0.00 0.00 0.00 0.00 0.00 0.00 0.00 0.00 0.00 0.00 0.00 0.00 0.00
0.01 0.01 0.00 0.00 0.00 0.00 0.00 0.00 0.00 0.00 0.00 0.00 0.00 0.00 0.00 0.00 0.00 0.00 0.00 0.00 0.00 0.00 0.00 0.00 0.00 0.00 0.00 0.00 0.00 0.00 0.00 0.00 0.00 0.00 0.00 0.00 0.00 0.04 0.02 0.01 0.00 0.00 0.00 0.00 0.00 0.00 0.00 0.00 0.00
0.00 0.00 0.00 0.00 0.00 0.00 0.00 0.00 0.00 0.00 0.00 0.00 0.00 0.00 0.00 0.00 0.00 0.00 0.00 0.00 0.00 0.00 0.00 0.00 0.00 0.00 0.00 0.00 0.00 0.00 0.00 0.00 0.00 0.00 0.00 0.00 0.00 0.00 0.03 0.02 0.01 0.00 0.00 0.00 0.00 0.00 0.00 0.00 0.00
0.00 0.00 0.00 0.00 0.00 0.00 0.00 0.00 0.00 0.00 0.00 0.00 0.00 0.00 0.00 0.00 0.00 0.00 0.00 0.00 0.00 0.00 0.00 0.00 0.00 0.00 0.00 0.00 0.00 0.00 0.00 0.00 0.00 0.00 0.00 0.00 0.00 0.00 0.00 0.02 0.02 0.00 0.00 0.00 0.00 0.00 0.00 0.00 0.02
0.00 0.00 0.00 0.00 0.00 0.00 0.00 0.00 0.00 0.00 0.00 0.00 0.00 0.00 0.00 0.00 0.00 0.00 0.00 0.00 0.00 0.00 0.00 0.00 0.00 0.00 0.00 0.00 0.00 0.00 0.00 0.00 0.00 0.00 0.00 0.00 0.00 0.00 0.00 0.00 0.00 0.00 0.00 0.00 0.01 0.03 0.00 0.00 0.00
0.00 0.00 0.00 0.00 0.00 0.00 0.00 0.00 0.00 0.00 0.00 0.00 0.00 0.00 0.00 0.00 0.00 0.00 0.00 0.00 0.00 0.00 0.00 0.00 0.00 0.00 0.00 0.00 0.00 0.00 0.00 0.00 0.00 0.00 0.00 0.00 0.00 0.00 0.00 0.01 0.01 0.01 0.00 0.00 0.00 0.01 0.01 0.00 0.00
0.00 0.00 0.00 0.00 0.00 0.00 0.00 0.00 0.01 0.00 0.00 0.00 0.00 0.00 0.00 0.00 0.00 0.00 0.00 0.00 0.00 0.00 0.00 0.00 0.00 0.00 0.00 0.00 0.00 0.00 0.00 0.00 0.00 0.00 0.00 0.00 0.00 0.00 0.00 0.04 0.08 0.06 0.00 0.00 0.00 0.00 0.00 0.00 0.01
0.00 0.00 0.00 0.00 0.00 0.01 0.01 0.02 0.00 0.00 0.00 0.00 0.00 0.00 0.00 0.00 0.00 0.00 0.00 0.00 0.00 0.00 0.00 0.00 0.00 0.00 0.00 0.00 0.00 0.00 0.00 0.01 0.00 0.01 0.01 0.00 0.00 0.00 0.00 0.00 0.01 0.01 0.01 0.00 0.00 0.00 0.00 0.04 0.05
0.00 0.00 0.00 0.00 0.00 0.00 0.00 0.00 0.01 0.00 0.00 0.00 0.00 0.00 0.00 0.00 0.00 0.00 0.00 0.00 0.00 0.00 0.00 0.00 0.00 0.00 0.00 0.00 0.00 0.00 0.00 0.06 0.08 0.07 0.08 0.01 0.00 0.00 0.00 0.01 0.02 0.00 0.00 0.00 0.00 0.00 0.01 0.03 0.05
0.00 0.00 0.00 0.00 0.00 0.00 0.00 0.00 0.00 0.00 0.00 0.00 0.00 0.00 0.00 0.00 0.00 0.00 0.00 0.00 0.00 0.00 0.00 0.00 0.00 0.00 0.00 0.00 0.03 0.02 0.00 0.05 0.08 0.06 0.08 0.07 0.08 0.01 0.03 0.02 0.03 0.01 0.00 0.00 0.00 0.00 0.00 0.00 0.02
0.00 0.00 0.00 0.00 0.00 0.00 0.00 0.00 0.00 0.00 0.00 0.00 0.00 0.00 0.00 0.00 0.00 0.00 0.00 0.01 0.00 0.00 0.00 0.00 0.00 0.00 0.00 0.02 0.02 0.05 0.10 0.11 0.15 0.14 0.18 0.08 0.07 0.01 0.00 0.00 0.00 0.01 0.00 0.00 0.00 0.01 0.00 0.05 0.05
0.00 0.00 0.00 0.00 0.00 0.00 0.00 0.00 0.00 0.00 0.00 0.00 0.00 0.00 0.00 0.00 0.00 0.00 0.00 0.00 0.00 0.00 0.00 0.00 0.00 0.00 0.01 0.03 0.04 0.07 0.21 0.24 0.33 0.20 0.22 0.11 0.04 0.01 0.00 0.00 0.00 0.00 0.00 0.00 0.00 0.00 0.00 0.05 0.14
0.00 0.00 0.00 0.00 0.00 0.00 0.00 0.00 0.00 0.00 0.00 0.00 0.00 0.00 0.00 0.00 0.00 0.00 0.00 0.00 0.00 0.00 0.00 0.00 0.00 0.00 0.02 0.04 0.02 0.06 0.15 0.12 0.15 0.15 0.11 0.10 0.02 0.00 0.00 0.00 0.00 0.00 0.00 0.00 0.00 0.00 0.00 0.01 0.06
0.00 0.00 0.00 0.00 0.00 0.00 0.00 0.00 0.00 0.00 0.00 0.00 0.00 0.00 0.00 0.00 0.00 0.00 0.00 0.00 0.00 0.00 0.00 0.00 0.00 0.01 0.03 0.01 0.00 0.00 0.02 0.01 0.01 0.02 0.02 0.04 0.02 0.00 0.00 0.00 0.00 0.00 0.00 0.00 0.00 0.01 0.00 0.00 0.03
0.00 0.00 0.00 0.00 0.00 0.00 0.00 0.00 0.00 0.00 0.00 0.00 0.00 0.03 0.06 0.00 0.00 0.00 0.00 0.00 0.00 0.00 0.00 0.00 0.00 0.01 0.03 0.00 0.00 0.00 0.00 0.00 0.00 0.00 0.00 0.00 0.00 0.00 0.00 0.00 0.00 0.01 0.04 0.04 0.02 0.00 0.01 0.00 0.00
0.00 0.00 0.00 0.00 0.00 0.00 0.00 0.00 0.00 0.00 0.00 0.02 0.01 0.01 0.05 0.00 0.00 0.00 0.00 0.00 0.00 0.00 0.00 0.00 0.00 0.02 0.03 0.00 0.00 0.00 0.00 0.00 0.00 0.00 0.00 0.00 0.00 0.00 0.00 0.00 0.00 0.02 0.08 0.17 0.23 0.07 0.00 0.00 0.00
0.00 0.00 0.00 0.00 0.00 0.00 0.00 0.00 0.00 0.00 0.00 0.00 0.00 0.00 0.00 0.00 0.00 0.00 0.00 0.00 0.00 0.00 0.00 0.00 0.02 0.02 0.04 0.02 0.00 0.00 0.00 0.00 0.00 0.00 0.00 0.00 0.01 0.02 0.03 0.04 0.04 0.02 0.09 0.08 0.08 0.02 0.00 0.00 0.00
0.00 0.00 0.00 0.00 0.00 0.00 0.00 0.00 0.00 0.00 0.00 0.00 0.00 0.00 0.00 0.00 0.00 0.00 0.00 0.00 0.00 0.00 0.00 0.00 0.01 0.01 0.01 0.02 0.00 0.00 0.00 0.00 0.00 0.00 0.00 0.04 0.12 0.08 0.05 0.03 0.07 0.02 0.01 0.01 0.00 0.00 0.00 0.00 0.01
0.00 0.00 0.00 0.00 0.00 0.00 0.00 0.00 0.00 0.00 0.00 0.00 0.00 0.00 0.00 0.00 0.00 0.00 0.00 0.00 0.00 0.00 0.00 0.00 0.02 0.03 0.02 0.00 0.00 0.00 0.00 0.00 0.00 0.00 0.00 0.02 0.07 0.06 0.04 0.01 0.00 0.00 0.00 0.00 0.00 0.00 0.01 0.00 0.01
0.00 0.00 0.00 0.00 0.00 0.00 0.00 0.00 0.00 0.00 0.00 0.00 0.00 0.00 0.00 0.01 0.00 0.00 0.00 0.00 0.00 0.00 0.00 0.06 0.14 0.12 0.04 0.00 0.00 0.00 0.00 0.00 0.01 0.02 0.01 0.00 0.00 0.00 0.00 0.00 0.00 0.00 0.00 0.00 0.00 0.00 0.01 0.02 0.00
0.00 0.00 0.00 0.00 0.00 0.00 0.00 0.00 0.00 0.00 0.00 0.00 0.00 0.00 0.00 0.00 0.00 0.00 0.00 0.00 0.00 0.00 0.00 0.18 0.18 0.07 0.02 0.05 0.00 0.00 0.00 0.01 0.09 0.06 0.02 0.00 0.00 0.01 0.00 0.00 0.00 0.00 0.00 0.00 0.00 0.00 0.00 0.02 0.01
0.00 0.00 0.00 0.00 0.00 0.00 0.00 0.00 0.00 0.00 0.00 0.00 0.00 0.00 0.00 0.00 0.00 0.02 0.00 0.00 0.00 0.01 0.04 0.22 0.13 0.01 0.08 0.08 0.00 0.00 0.02 0.11 0.09 0.04 0.07 0.02 0.02 0.00 0.00 0.00 0.00 0.00 0.00 0.00 0.00 0.00 0.00 0.00 0.00
0.00 0.00 0.00 0.00 0.00 0.00 0.00 0.00 0.00 0.00 0.00 0.00 0.00 0.00 0.00 0.00 0.00 0.02 0.02 0.05 0.00 0.04 0.10 0.30 0.04 0.00 0.04 0.03 0.00 0.00 0.07 0.15 0.25 0.14 0.11 0.03 0.04 0.00 0.00 0.00 0.00 0.00 0.00 0.00 0.00 0.00 0.00 0.00 0.00
0.00 0.00 0.00 0.00 0.00 0.00 0.00 0.00 0.00 0.00 0.00 0.00 0.00 0.00 0.01 0.01 0.00 0.00 0.01 0.02 0.00 0.07 0.19 0.29 0.06 0.01 0.01 0.00 0.00 0.00 0.05 0.12 0.15 0.05 0.15 0.07 0.00 0.00 0.00 0.00 0.00 0.00 0.00 0.00 0.00 0.00 0.00 0.00 0.00
0.00 0.00 0.00 0.00 0.00 0.00 0.00 0.00 0.00 0.00 0.00 0.00 0.00 0.02 0.18 0.26 0.14 0.02 0.00 0.00 0.02 0.05 0.12 0.11 0.08 0.04 0.00 0.00 0.00 0.00 0.01 0.01 0.02 0.03 0.05 0.03 0.00 0.00 0.00 0.00 0.00 0.00 0.00 0.00 0.00 0.00 0.00 0.00 0.00
0.00 0.00 0.00 0.00 0.00 0.00 0.00 0.00 0.00 0.00 0.00 0.00 0.00 0.06 0.44 0.85 0.36 0.12 0.00 0.05 0.18 0.09 0.12 0.09 0.08 0.02 0.00 0.00 0.00 0.00 0.01 0.00 0.00 0.00 0.01 0.00 0.00 0.00 0.00 0.00 0.00 0.00 0.00 0.00 0.00 0.00 0.00 0.00 0.00
0.00 0.00 0.00 0.00 0.00 0.00 0.00 0.00 0.00 0.00 0.00 0.00 0.04 0.38 0.40 0.47 0.52 0.28 0.06 0.12 0.10 0.10 0.13 0.06 0.02 0.00 0.00 0.00 0.00 0.00 0.00 0.00 0.00 0.00 0.00 0.00 0.00 0.00 0.00 0.00 0.00 0.00 0.00 0.00 0.00 0.00 0.00 0.00 0.00
MSLP
1012.28 1012.97 1013.59 1013.57 1013.67 1012.53 1010.75 1010.03 1008.87 1009.02 1008.96 1009.39 1009.35 1009.64 1010.27 1010.52 1010.79 1012.27 1012.05 1012.71 1013.07 1013.55 1013.69 1013.89 1014.03 1014.33 1014.54 1014.71 1014.81 1014.97 1015.15 1015.30 1015.48 1015.64 1015.73 1015.83 1015.83 1016.01 1016.04 1016.12 1016.25 1016.38 1016.59 1016.71 1016.79 1016.80 1016.94 1017.11 1017.18
1011.53 1012.71 1013.31 1012.99 1012.55 1011.25 1010.63 1009.36 1009.22 1009.07 1009.17 1009.23 1009.16 1009.59 1009.98 1010.93 1010.77 1011.75 1012.55 1013.05 1013.25 1013.48 1013.79 1013.98 1014.22 1014.48 1014.64 1014.78 1014.91 1015.11 1015.31 1015.53 1015.68 1015.90 1016.04 1016.09 1016.09 1016.15 1016.28 1016.41 1016.45 1016.45 1016.62 1016.83 1016.93 1017.04 1017.11 1017.32 1017.43
1011.08 1011.39 1012.48 1012.11 1011.35 1009.97 1009.67 1009.01 1008.85 1008.89 1008.82 1008.77 1008.91 1009.13 1009.66 1010.81 1011.11 1011.58 1012.12 1013.02 1013.36 1013.73 1013.98 1014.21 1014.40 1014.65 1014.83 1015.00 1015.21 1015.40 1015.47 1015.67 1015.77 1015.94 1016.20 1016.36 1016.37 1016.39 1016.46 1016.57 1016.60 1016.58 1016.73 1016.86 1017.05 1017.12 1017.31 1017.42 1017.54
1010.94 1011.43 1011.49 1011.20 1010.19 1008.77 1007.95 1008.13 1008.13 1008.60 1008.93 1008.93 1009.12 1009.66 1010.26 1010.29 1010.89 1011.52 1012.51 1013.15 1013.63 1013.96 1014.21 1014.44 1014.62 1014.76 1014.94 1015.18 1015.31 1015.45 1015.55 1015.80 1015.99 1016.14 1016.24 1016.42 1016.49 1016.50 1016.56 1016.67 1016.85 1016.85 1016.92 1016.97 1016.96 1017.09 1017.28 1017.43 1017.59
1010.75 1010.56 1011.05 1010.53 1009.51 1008.24 1007.74 1007.65 1007.79 1008.52 1008.92 1009.26 1009.49 1010.10 1010.67 1010.95 1011.14 1012.05 1012.75 1013.18 1013.46 1014.14 1014.27 1014.55 1014.73 1014.93 1015.07 1015.11 1015.21 1015.32 1015.45 1015.73 1015.96 1016.14 1016.41 1016.53 1016.63 1016.70 1016.76 1016.82 1016.93 1016.97 1017.10 1017.13 1017.11 1017.14 1017.20 1017.36 1017.53
1010.69 1011.00 1010.96 1010.26 1009.01 1007.92 1007.54 1007.70 1007.94 1008.43 1009.11 1009.65 1010.03 1010.51 1011.49 1011.43 1011.84 1012.35 1012.81 1013.21 1013.49 1013.78 1014.19 1014.47 1014.69 1014.90 1014.94 1015.03 1015.21 1015.35 1015.42 1015.56 1015.80 1016.11 1016.40 1016.57 1016.67 1016.77 1016.79 1016.75 1016.93 1016.99 1017.08 1017.32 1017.45 1017.37 1017.35 1017.48 1017.55
1010.12 1010.75 1010.81 1009.77 1009.02 1008.02 1007.67 1007.79 1007.89 1008.53 1009.09 1009.61 1009.91 1010.93 1011.78 1012.01 1012.15 1012.57 1012.94 1013.44 1013.77 1014.04 1014.33 1014.43 1014.66 1014.81 1014.88 1015.09 1015.19 1015.37 1015.59 1015.70 1015.81 1016.00 1016.32 1016.56 1016.68 1016.79 1016.84 1016.87 1016.89 1016.86 1017.09 1017.17 1017.45 1017.54 1017.51 1017.58 1017.60
1009.37 1009.99 1009.94 1009.71 1009.27 1008.68 1007.89 1007.51 1007.82 1008.23 1008.84 1009.45 1009.58 1010.65 1011.21 1011.89 1012.29 1012.96 1013.39 1013.75 1014.02 1014.26 1014.25 1014.54 1014.80 1014.81 1014.94 1015.02 1015.10 1015.25 1015.38 1015.54 1015.75 1015.85 1016.02 1016.28 1016.53 1016.75 1016.74 1016.82 1016.93 1016.98 1017.14 1017.18 1017.24 1017.51 1017.59 1017.56 1017.60
1008.59 1009.48 1009.96 1009.39 1008.93 1008.80 1007.82 1008.00 1008.13 1008.12 1008.76 1009.29 1009.50 1010.06 1010.79 1011.62 1012.42 1013.33 1013.85 1014.41 1014.52 1014.73 1014.76 1014.78 1014.76 1014.76 1014.73 1014.97 1015.17 1015.29 1015.32 1015.44 1015.56 1015.70 1015.74 1015.92 1016.35 1016.56 1016.68 1016.67 1016.86 1016.96 1017.04 1017.12 1017.05 1017.10 1017.29 1017.45 1017.53
1008.38 1009.14 1008.90 1007.51 1008.45 1008.93 1008.78 1008.59 1008.69 1008.81 1009.49 1009.56 1009.83 1010.45 1010.90 1011.69 1012.37 1013.01 1013.71 1014.24 1014.69 1014.73 1014.72 1014.79 1014.74 1014.84 1014.73 1014.78 1015.01 1015.29 1015.53 1015.59 1015.59 1015.76 1015.91 1015.95 1016.14 1016.25 1016.45 1016.61 1016.62 1016.86 1016.89 1017.04 1017.13 1017.08 1017.18 1017.35 1017.71
1007.54 1007.61 1007.43 1007.35 1008.29 1007.98 1009.07 1008.58 1008.95 1009.20 1009.59 1009.60 1009.77 1010.17 1010.68 1011.61 1012.28 1012.76 1013.26 1013.40 1013.74 1014.27 1014.59 1014.56 1014.62 1014.49 1014.53 1014.57 1014.89 1015.06 1015.22 1015.35 1015.52 1015.63 1015.84 1015.92 1016.17 1016.27 1016.21 1016.37 1016.31 1016.57 1016.70 1016.97 1017.03 1017.20 1017.32 1017.57 1017.80
1006.63 1005.57 1006.03 1006.75 1007.70 1007.93 1008.12 1007.64 1007.29 1007.82 1008.68 1009.43 1009.85 1010.20 1010.62 1011.28 1011.99 1012.29 1012.77 1013.30 1013.60 1013.99 1014.19 1014.26 1014.31 1014.29 1014.32 1014.41 1014.61 1014.95 1015.23 1015.32 1015.37 1015.30 1015.50 1015.84 1016.24 1016.25 1016.06 1016.21 1016.34 1016.41 1016.78 1017.21 1017.39 1017.53 1017.44 1017.31 1017.72
1005.99 1005.13 1004.79 1005.61 1006.35 1007.00 1007.31 1007.23 1007.09 1006.98 1007.36 1008.81 1009.62 1010.14 1010.58 1011.09 1011.45 1011.78 1012.09 1012.89 1013.09 1013.56 1013.82 1013.99 1014.03 1014.17 1014.05 1014.54 1014.68 1014.92 1015.02 1015.22 1015.35 1015.17 1015.32 1015.69 1016.27 1016.35 1016.04 1016.05 1016.51 1016.64 1016.78 1017.03 1017.16 1017.22 1017.20 1017.02 1017.03
1005.89 1005.13 1004.74 1004.66 1006.11 1006.84 1007.17 1007.16 1006.95 1007.60 1007.88 1008.55 1008.91 1009.56 1010.16 1010.43 1010.79 1011.35 1012.03 1012.84 1012.87 1013.01 1013.28 1013.64 1013.86 1013.83 1013.85 1014.27 1014.48 1014.93 1015.32 1015.06 1015.13 1015.23 1015.40 1015.59 1016.05 1015.97 1016.05 1016.20 1016.45 1016.57 1016.66 1016.81 1016.65 1016.56 1016.91 1016.84 1016.65
1005.93 1005.60 1005.04 1005.12 1006.46 1007.19 1007.39 1007.79 1007.58 1007.39 1008.28 1008.32 1008.65 1009.43 1009.91 1010.40 1010.39 1010.83 1011.42 1012.08 1012.21 1012.46 1012.78 1013.34 1013.69 1013.57 1013.93 1014.00 1014.14 1014.60 1014.95 1014.93 1015.07 1015.15 1015.47 1015.59 1015.64 1015.71 1015.92 1016.15 1016.50 1016.50 1016.56 1016.59 1016.45 1016.41 1016.82 1016.73 1016.45
1005.93 1005.86 1006.65 1006.50 1006.69 1007.06 1007.00 1007.57 1007.63 1007.99 1008.11 1008.65 1009.07 1009.15 1009.93 1010.15 1010.30 1010.54 1010.99 1011.60 1012.08 1012.23 1012.71 1013.17 1013.63 1013.75 1013.83 1014.16 1014.31 1014.63 1014.67 1014.76 1014.99 1015.09 1015.28 1014.99 1015.32 1015.41 1015.75 1016.15 1016.53 1016.37 1016.19 1016.44 1016.48 1016.55 1016.47 1016.37 1015.97
1007.22 1006.96 1006.20 1005.49 1005.58 1005.83 1006.81 1006.54 1006.75 1007.89 1008.09 1010.15 1009.94 1009.69 1009.70 1009.88 1010.02 1010.08 1010.61 1011.12 1011.64 1011.89 1012.45 1013.00 1013.40 1013.79 1013.82 1013.87 1014.15 1014.57 1014.73 1014.85 1014.89 1015.06 1015.23 1015.33 1015.21 1015.34 1015.65 1015.95 1016.12 1016.20 1016.32 1016.39 1016.28 1016.31 1016.34 1016.26 1016.04
1007.79 1007.13 1006.06 1005.50 1004.44 1005.00 1006.13 1006.41 1006.50 1007.09 1007.83 1009.50 1009.82 1009.21 1009.04 1009.37 1009.49 1009.47 1010.24 1010.58 1011.26 1011.53 1012.02 1012.73 1013.27 1013.56 1013.88 1014.25 1014.53 1014.81 1015.09 1015.08 1014.95 1015.11 1015.41 1015.50 1015.46 1015.39 1015.58 1015.59 1015.71 1015.93 1016.40 1016.31 1016.24 1016.18 1015.92 1015.77 1015.86
1007.18 1006.73 1005.63 1004.55 1004.33 1004.46 1004.95 1005.39 1006.21 1006.63 1007.71 1008.53 1008.89 1007.91 1007.62 1008.96 1009.23 1009.07 1009.68 1010.35 1011.10 1011.47 1012.08 1012.69 1013.22 1013.57 1013.92 1014.37 1014.93 1015.02 1015.28 1015.39 1015.27 1015.19 1015.06 1015.29 1015.33 1015.38 1015.52 1015.57 1015.44 1015.59 1016.07 1016.13 1015.87 1016.11 1016.17 1015.97 1015.82
1006.75 1006.48 1005.51 1004.44 1004.01 1004.71 1004.81 1005.08 1005.57 1005.94 1006.36 1006.84 1007.35 1007.57 1007.87 1008.66 1009.28 1009.04 1009.47 1010.13 1010.74 1011.46 1012.00 1012.55 1012.79 1013.20 1013.67 1014.21 1014.51 1014.72 1014.93 1015.23 1015.17 1015.06 1015.12 1014.95 1015.12 1015.16 1015.37 1015.53 1015.64 1015.79 1015.82 1015.94 1016.08 1016.29 1016.16 1015.99 1015.82
1006.15 1006.05 1005.52 1004.88 1004.43 1004.49 1005.25 1006.14 1005.99 1006.04 1006.11 1006.56 1006.65 1007.10 1007.67 1008.11 1008.50 1009.00 1009.24 1009.69 1010.46 1011.27 1011.67 1011.99 1012.37 1012.75 1013.37 1014.03 1014.58 1014.83 1014.94 1015.00 1015.41 1015.34 1015.01 1014.83 1014.91 1015.13 1015.18 1015.30 1015.61 1015.83 1015.75 1015.77 1015.80 1015.78 1015.81 1015.83 1015.67
1005.48 1005.13 1005.05 1005.16 1005.95 1005.92 1006.10 1007.62 1007.00 1006.81 1006.55 1006.60 1006.51 1006.95 1007.61 1007.95 1008.11 1008.67 1008.63 1009.34 1010.16 1010.88 1011.32 1011.99 1012.33 1012.98 1013.36 1013.78 1014.33 1015.02 1015.08 1015.25 1015.00 1015.05 1015.01 1014.90 1014.98 1015.06 1015.18 1015.45 1015.65 1015.64 1015.66 1015.59 1015.59 1015.53 1015.50 1015.59 1015.69
1004.29 1004.57 1005.33 1006.00 1006.39 1007.15 1007.08 1008.15 1007.29 1006.95 1007.14 1006.30 1005.77 1006.45 1007.09 1007.17 1007.54 1007.91 1007.91 1008.25 1009.56 1010.58 1011.51 1011.94 1012.56 1013.11 1013.34 1013.77 1014.21 1014.86 1015.12 1015.00 1014.75 1014.78 1014.92 1015.04 1015.27 1015.19 1015.24 1015.38 1015.54 1015.62 1015.59 1015.52 1015.47 1015.52 1015.63 1015.54 1015.55
1003.39 1004.12 1005.27 1006.40 1007.70 1008.65 1007.79 1007.94 1007.45 1007.01 1005.58 1005.65 1005.98 1006.08 1006.21 1006.53 1007.05 1007.83 1008.67 1008.91 1009.45 1010.46 1011.23 1011.89 1013.04 1013.05 1013.33 1013.78 1014.04 1014.44 1014.91 1014.86 1014.79 1014.83 1014.88 1015.12 1015.35 1015.47 1015.33 1015.45 1015.70 1015.53 1015.33 1015.13 1015.03 1015.12 1015.12 1015.31 1015.32
1003.89 1005.92 1007.31 1008.52 1009.10 1009.09 1007.90 1007.57 1006.45 1005.31 1004.89 1004.31 1005.15 1005.21 1005.23 1005.88 1007.07 1007.68 1008.51 1009.05 1009.93 1010.81 1011.46 1012.11 1012.91 1013.46 1013.58 1013.79 1014.16 1014.40 1014.67 1014.89 1015.04 1015.02 1015.06 1014.95 1015.08 1015.57 1015.58 1015.82 1015.85 1015.77 1015.40 1015.21 1015.16 1015.28 1015.32 1015.47 1015.52
1004.35 1006.11 1007.95 1009.22 1010.31 1009.52 1008.31 1007.56 1006.35 1005.76 1004.52 1004.00 1004.16 1004.28 1005.47 1006.35 1007.07 1007.55 1007.40 1008.10 1009.45 1010.87 1011.60 1012.59 1012.87 1013.59 1013.69 1013.81 1014.17 1014.67 1014.86 1015.05 1015.11 1014.91 1014.85 1015.08 1015.14 1015.48 1015.34 1015.80 1015.71 1015.62 1015.37 1015.15 1015.09 1015.19 1015.24 1015.37 1015.39
1004.15 1005.52 1006.52 1008.45 1009.98 1010.21 1009.08 1007.75 1006.84 1005.91 1005.49 1005.06 1005.24 1006.58 1006.69 1007.02 1007.29 1007.33 1007.82 1008.22 1009.21 1010.25 1012.54 1012.62 1012.78 1013.38 1013.59 1013.81 1014.29 1014.75 1014.89 1015.12 1015.26 1014.84 1015.07 1015.44 1015.57 1015.58 1015.15 1015.55 1015.69 1015.58 1015.39 1015.40 1015.34 1015.27 1015.36 1015.29 1015.16
1003.21 1004.52 1006.72 1008.69 1009.87 1010.54 1010.00 1008.92 1008.07 1007.33 1007.02 1007.31 1007.63 1008.61 1010.37 1010.92 1012.25 1008.71 1008.24 1008.24 1009.51 1010.33 1012.32 1012.49 1012.45 1013.06 1013.58 1013.82 1014.15 1014.54 1015.03 1015.24 1015.34 1015.21 1015.17 1015.57 1015.86 1015.53 1015.42 1015.70 1015.78 1015.71 1015.71 1015.61 1015.63 1015.63 1015.60 1015.36 1015.23
1003.56 1004.56 1006.41 1008.06 1009.21 1010.41 1010.89 1010.29 1009.64 1008.94 1008.09 1008.45 1009.26 1010.07 1009.61 1014.27 1013.28 1012.42 1007.99 1009.10 1010.20 1010.88 1011.29 1012.43 1012.96 1013.33 1013.49 1013.87 1014.15 1014.37 1014.81 1015.31 1015.19 1015.40 1015.39 1015.57 1015.73 1015.72 1015.71 1016.02 1016.14 1016.25 1016.25 1016.19 1016.17 1016.12 1015.99 1015.89 1015.75
1003.48 1004.33 1005.70 1007.99 1008.94 1010.16 1010.39 1010.65 1009.90 1009.88 1009.63 1008.60 1008.13 1008.59 1008.57 1009.52 1010.21 1010.71 1008.59 1010.02 1009.86 1010.63 1010.87 1011.99 1012.75 1013.23 1013.62 1013.92 1014.24 1014.51 1014.71 1015.22 1015.21 1015.37 1015.39 1015.48 1015.81 1015.91 1016.10 1016.33 1016.51 1016.63 1016.74 1016.79 1016.58 1016.57 1016.49 1016.48 1016.43
Thickness
5820 5811 5805 5798 5773 5772 5780 5785 5810 5800 5800 5807 5810 5800 5791 5791 5782 5756 5797 5793 5789 5783 5780 5778 5777 5774 5772 5771 5771 5770 5769 5766 5765 5764 5763 5763 5763 5761 5758 5756 5757 5757 5757 5757 5758 5759 5758 5757 5757
5831 5819 5807 5792 5772 5767 5774 5805 5797 5804 5808 5812 5812 5806 5797 5780 5803 5794 5789 5793 5787 5783 5780 5778 5776 5772 5771 5770 5770 5768 5766 5763 5762 5761 5760 5760 5761 5760 5758 5756 5756 5756 5757 5756 5757 5756 5756 5756 5756
5841 5836 5804 5789 5779 5778 5779 5806 5808 5814 5821 5820 5814 5821 5808 5791 5804 5801 5803 5793 5785 5780 5779 5776 5773 5771 5769 5768 5766 5764 5763 5762 5761 5761 5759 5758 5757 5757 5756 5756 5756 5757 5757 5757 5756 5756 5755 5755 5756
5839 5829 5816 5789 5785 5812 5818 5821 5824 5818 5824 5827 5821 5804 5815 5818 5807 5807 5799 5791 5784 5780 5777 5774 5772 5770 5767 5765 5764 5763 5763 5761 5758 5758 5759 5757 5757 5756 5755 5754 5753 5754 5755 5756 5756 5757 5756 5756 5756
5838 5830 5795 5786 5796 5821 5832 5836 5834 5819 5819 5817 5818 5800 5799 5810 5814 5806 5799 5793 5786 5780 5778 5774 5771 5769 5767 5766 5765 5764 5764 5761 5759 5758 5756 5756 5755 5755 5754 5753 5752 5752 5752 5754 5756 5757 5758 5758 5758
5819 5819 5789 5779 5798 5826 5834 5839 5835 5826 5821 5816 5808 5803 5796 5814 5807 5803 5799 5793 5789 5786 5780 5776 5772 5770 5769 5769 5767 5765 5764 5763 5761 5758 5755 5754 5754 5753 5753 5755 5753 5753 5752 5751 5751 5754 5756 5757 5758
5822 5810 5795 5800 5804 5817 5827 5842 5832 5824 5818 5812 5819 5795 5801 5803 5808 5806 5801 5795 5790 5785 5780 5778 5774 5771 5770 5767 5767 5765 5762 5761 5760 5759 5756 5753 5754 5752 5752 5752 5753 5754 5753 5752 5750 5751 5754 5756 5758
5837 5820 5809 5807 5799 5804 5834 5842 5844 5831 5822 5834 5831 5793 5793 5806 5809 5802 5797 5792 5789 5785 5783 5779 5774 5773 5770 5767 5767 5766 5765 5763 5761 5760 5758 5755 5753 5752 5753 5753 5752 5751 5751 5751 5752 5752 5752 5754 5757
5856 5807 5792 5805 5810 5813 5839 5831 5847 5850 5833 5831 5829 5822 5821 5817 5810 5796 5791 5784 5783 5782 5782 5778 5776 5774 5772 5767 5764 5763 5764 5762 5761 5760 5760 5758 5755 5754 5753 5753 5753 5752 5751 5751 5753 5753 5754 5754 5757
5831 5799 5811 5839 5828 5816 5826 5832 5835 5832 5818 5820 5824 5828 5825 5817 5809 5799 5791 5783 5780 5781 5782 5781 5777 5774 5772 5768 5765 5762 5759 5758 5759 5759 5757 5756 5756 5756 5754 5754 5753 5751 5751 5751 5752 5754 5756 5755 5754
5836 5818 5838 5843 5832 5844 5826 5828 5839 5826 5814 5820 5816 5822 5824 5818 5811 5804 5799 5795 5790 5786 5783 5782 5780 5776 5773 5770 5766 5762 5760 5758 5757 5756 5756 5755 5754 5754 5756 5755 5755 5754 5754 5753 5753 5753 5754 5755 5754
5836 5862 5858 5851 5846 5838 5832 5848 5847 5843 5832 5839 5831 5831 5828 5820 5814 5811 5805 5799 5795 5789 5787 5785 5782 5780 5776 5773 5768 5763 5758 5757 5755 5756 5755 5754 5752 5752 5755 5755 5755 5757 5755 5752 5752 5752 5752 5755 5754
5845 5863 5872 5865 5858 5850 5850 5845 5851 5853 5856 5849 5838 5834 5827 5822 5821 5818 5816 5805 5802 5794 5790 5786 5783 5780 5778 5773 5770 5763 5757 5753 5750 5752 5752 5751 5748 5749 5753 5754 5752 5755 5753 5752 5753 5753 5754 5756 5756
5853 5862 5864 5869 5853 5851 5843 5847 5853 5850 5856 5846 5844 5837 5834 5830 5827 5821 5811 5800 5802 5800 5795 5789 5783 5782 5779 5774 5766 5759 5753 5752 5749 5747 5745 5746 5745 5750 5751 5750 5750 5753 5751 5752 5756 5757 5754 5756 5758
5851 5840 5851 5851 5843 5839 5849 5830 5834 5855 5850 5849 5847 5841 5837 5831 5834 5823 5817 5808 5808 5805 5800 5790 5784 5784 5779 5775 5767 5760 5753 5749 5744 5743 5742 5743 5746 5748 5749 5747 5747 5750 5752 5752 5755 5756 5753 5754 5758
5837 5831 5804 5835 5841 5845 5846 5809 5837 5844 5847 5843 5844 5844 5835 5831 5832 5828 5820 5813 5808 5807 5800 5794 5786 5783 5779 5773 5766 5759 5755 5750 5745 5745 5743 5744 5746 5748 5748 5746 5744 5748 5753 5752 5753 5753 5753 5754 5761
5813 5797 5817 5835 5857 5852 5838 5832 5850 5845 5845 5825 5828 5833 5837 5834 5831 5827 5823 5818 5812 5809 5803 5795 5788 5781 5779 5774 5767 5759 5755 5750 5747 5744 5742 5743 5746 5746 5746 5746 5746 5748 5750 5751 5752 5752 5751 5752 5757
5791 5801 5816 5820 5856 5852 5831 5833 5853 5854 5846 5825 5826 5838 5841 5836 5829 5834 5823 5825 5817 5813 5808 5798 5790 5784 5780 5772 5765 5759 5753 5750 5747 5744 5740 5741 5742 5743 5744 5747 5748 5748 5746 5747 5749 5750 5754 5755 5756
5817 5815 5825 5839 5854 5846 5840 5840 5843 5851 5843 5832 5832 5849 5851 5837 5833 5838 5829 5827 5819 5815 5807 5798 5790 5784 5779 5770 5760 5756 5750 5746 5745 5743 5741 5740 5740 5741 5742 5744 5747 5747 5746 5745 5747 5747 5746 5750 5754
5817 5812 5817 5841 5856 5845 5840 5839 5849 5849 5847 5844 5844 5845 5843 5835 5826 5833 5833 5828 5821 5814 5807 5797 5792 5787 5779 5772 5766 5761 5755 5749 5746 5743 5740 5741 5741 5741 5739 5740 5742 5741 5744 5744 5743 5742 5743 5746 5749
5814 5806 5816 5826 5849 5853 5839 5815 5829 5843 5849 5847 5853 5850 5845 5841 5831 5833 5833 5830 5822 5812 5808 5802 5796 5791 5783 5774 5765 5760 5757 5753 5745 5741 5742 5741 5740 5739 5739 5739 5738 5739 5742 5743 5744 5745 5745 5742 5746
5794 5833 5836 5833 5816 5791 5831 5768 5811 5820 5829 5839 5844 5844 5842 5838 5839 5834 5837 5831 5820 5814 5811 5804 5799 5789 5784 5778 5766 5756 5750 5747 5749 5746 5743 5742 5739 5737 5736 5735 5735 5737 5739 5741 5743 5745 5744 5743 5742
5818 5835 5829 5825 5811 5796 5807 5777 5793 5818 5811 5825 5844 5844 5843 5843 5843 5838 5842 5841 5822 5815 5808 5802 5793 5786 5782 5774 5767 5757 5750 5750 5752 5748 5742 5739 5736 5734 5734 5734 5734 5735 5737 5739 5741 5741 5741 5744 5743
5851 5839 5818 5809 5787 5761 5794 5786 5786 5795 5827 5830 5836 5845 5849 5844 5844 5841 5835 5831 5824 5815 5808 5801 5788 5784 5780 5771 5765 5757 5747 5746 5745 5743 5740 5736 5733 5731 5732 5730 5729 5733 5738 5741 5743 5743 5745 5743 5743
5826 5788 5749 5756 5747 5752 5798 5792 5799 5827 5840 5845 5837 5845 5851 5849 5839 5838 5827 5824 5819 5806 5802 5796 5788 5779 5774 5768 5760 5753 5747 5741 5736 5735 5733 5734 5733 5727 5729 5727 5726 5728 5731 5734 5736 5736 5737 5738 5738
5815 5788 5744 5740 5735 5757 5793 5779 5803 5825 5841 5858 5857 5860 5853 5844 5838 5835 5836 5831 5821 5806 5798 5788 5785 5776 5770 5765 5756 5745 5740 5735 5726 5719 5722 5725 5728 5727 5730 5727 5726 5727 5729 5732 5734 5735 5737 5737 5737
5807 5789 5803 5765 5765 5748 5765 5796 5815 5827 5829 5837 5842 5830 5832 5833 5834 5833 5830 5828 5821 5809 5787 5787 5783 5775 5770 5762 5752 5743 5737 5728 5719 5718 5717 5717 5721 5723 5729 5727 5726 5728 5729 5730 5732 5733 5734 5737 5739
5819 5824 5783 5756 5751 5739 5753 5776 5776 5811 5818 5814 5808 5806 5792 5775 5766 5817 5821 5826 5815 5802 5787 5786 5785 5777 5769 5761 5751 5743 5733 5726 5717 5714 5715 5714 5716 5722 5727 5724 5723 5724 5726 5729 5730 5731 5733 5736 5738
5806 5797 5788 5776 5754 5736 5728 5752 5784 5788 5806 5805 5796 5794 5798 5749 5751 5766 5826 5817 5803 5796 5794 5785 5781 5773 5767 5759 5750 5743 5736 5725 5718 5713 5714 5714 5716 5721 5723 5720 5718 5717 5719 5721 5722 5725 5728 5730 5732
5817 5801 5786 5751 5760 5751 5748 5753 5784 5789 5795 5808 5813 5807 5804 5785 5760 5768 5814 5802 5804 5797 5797 5787 5777 5770 5764 5756 5748 5741 5735 5729 5724 5720 5719 5720 5719 5720 5717 5715 5714 5713 5713 5714 5717 5719 5722 5723 5724